Location: Elsenreith
(48.3833°N, 15.2667°E)
Time: 09:52:16
(UTC+00:00)

Daily predictions for brighter satellites

Satellite Brightness Start Highest point End
(mag) Time Altitude Azimuth Time Altitude Azimuth Time Altitude Azimuth
ATLAS 2AS CENTAUR R/B 4.0 15:31:05 10° W 15:38:01 34° NNW 15:44:42 10° NE
Cosmos 2082 Rocket 3.9 15:35:35 10° SE 15:38:32 14° E 15:41:28 10° ENE
USA 307 3.5 15:36:37 10° W 15:40:46 47° NNW 15:44:56 10° ENE
NOAA 6 4.4 15:37:50 10° SE 15:42:41 44° ENE 15:47:32 10° N
Cosmos 990 Rocket 4.0 15:37:43 10° NNW 15:42:53 58° ENE 15:47:58 10° SE
SeaSat 1 3.9 15:41:47 10° NNE 15:46:07 31° NW 15:50:26 10° WSW
CORIOLIS 4.5 15:41:19 10° SE 15:46:24 44° ENE 15:51:31 10° N
NOSS 2-1 (C) 4.2 15:43:41 10° WSW 15:46:37 31° NW 15:49:44 10° NNE
Cosmos 1408 Rocket 3.5 15:42:25 10° N 15:46:48 77° E 15:51:10 10° SSE
Iridium 2 4.3 15:48:55 10° NNW 15:52:38 59° W 15:56:18 10° S
Meteor PRIRODA 3.5 15:49:07 10° SSE 15:52:45 83° ENE 15:56:24 10° NNW
Okean O Rocket 3.1 15:50:55 10° E 15:53:47 17° ENE 15:56:39 10° NNE
USA 234 3.3 15:47:16 10° ESE 15:53:50 85° NNE 16:00:24 10° NW
NOSS 3-1 (A) 4.1 15:46:42 10° NW 15:54:05 80° NE 16:02:48 10° SE
Cosmos 1602 4.5 15:50:47 10° N 15:54:14 30° ENE 15:57:40 10° SE
Cosmos 1743 Rocket 3.7 15:50:12 10° N 15:54:25 50° ENE 15:58:38 10° SSE
NOSS 3-1 (C) 4.4 15:47:24 10° NW 15:54:50 74° SW 16:03:32 10° SSE
ATLAS CENTAUR R/B 3.2 15:51:33 10° W 15:55:09 26° NW 15:58:59 10° NNE
USA 276 3.0 15:52:13 10° WNW 15:55:15 49° SSW 15:58:17 10° SE
COSMOS 2406 4.0 15:50:29 10° SSE 15:55:31 32° ESE 16:00:32 10° NE
NOSS 2-1 (D) 4.5 15:53:16 10° W 15:56:05 27° NW 15:59:05 10° NNE
COSMOS 2455 4.0 15:51:23 10° SSE 15:56:05 25° ESE 16:00:45 10° NE
NOAA 12 4.1 15:51:26 10° SSE 15:56:46 83° ENE 16:02:07 10° NNW
Cosmos 1782 4.0 15:57:25 10° SE 16:00:33 22° E 16:03:40 10° NE
NOSS 2-2 (E) 4.4 15:56:28 10° NW 16:01:21 53° NE 16:08:10 10° ESE
Cosmos 1833 Rocket 3.1 15:56:59 10° S 16:02:17 45° ESE 16:07:38 10° NE
USA 308 3.6 15:59:14 10° W 16:03:18 42° N 16:06:49 13° ENE
ARGOS 4.1 15:59:07 10° ESE 16:03:28 25° ENE 16:07:49 10° N
Spot 1 4.4 16:00:12 10° NNE 16:04:53 90° WNW 16:09:49 10° SSW
Cosmos 1464 Rocket 4.3 16:03:46 10° SSW 16:10:09 76° W 16:16:34 10° N
Cosmos 1340 Rocket 2.9 16:06:06 10° NNW 16:10:12 85° W 16:14:17 10° S
SJ 16-02 3.9 16:07:01 10° NW 16:10:37 25° W 16:14:13 10° SSW
PAYLOAD B 4.4 16:07:15 10° SE 16:12:38 50° ENE 16:18:02 10° N
ISS -3.6 16:11:16 10° WNW 16:14:39 59° NNE 16:17:10 16° E
Cosmos 1606 4.0 16:13:19 10° SSW 16:16:54 41° WNW 16:20:31 10° N
CZ-2D R/B 3.6 16:13:16 10° SE 16:16:54 42° ENE 16:20:33 10° N
Nadezhda 4 Rocket 4.3 16:11:33 10° NNW 16:17:52 77° W 16:24:12 10° S
Lacrosse 5 rocket 2.4 16:15:31 10° NW 16:18:51 27° NNE 16:20:54 18° ENE
CZ-4B R/B 3.5 16:14:53 10° SE 16:19:54 40° ENE 16:24:52 10° N
Cosmos 2360 4.2 16:15:18 10° NNW 16:21:04 77° ENE 16:26:48 10° SSE
Meteor 1-20 Rocket 4.3 16:16:22 10° N 16:22:14 87° ENE 16:28:06 10° S
CZ-2C R/B 3.4 16:18:22 10° NE 16:22:52 29° E 16:27:19 10° SSE
Cosmos 1500 Rocket 3.7 16:18:54 10° NNW 16:23:22 78° W 16:27:45 10° S
Cosmos 540 Rocket 3.7 16:19:12 10° S 16:24:05 47° ESE 16:28:33 12° NE
CZ-4C R/B 3.1 16:17:51 10° NW 16:24:34 51° NE 16:32:31 10° ESE
GEOS 3 Rocket 4.3 16:21:01 14° E 16:24:58 34° NE 16:29:36 10° NNW
Cosmos 1818 4.4 16:20:20 10° NNW 16:25:10 30° NE 16:28:21 18° E
CZ-4B R/B 4.2 16:23:16 10° S 16:27:09 43° W 16:30:53 10° NNW
SMAP 3.2 16:24:08 10° S 16:28:47 77° WSW 16:33:28 10° NNW
Cosmos 1500 3.3 16:25:20 10° N 16:28:58 46° ENE 16:32:34 10° SSE
USA 305 3.7 16:26:42 10° WNW 16:30:40 38° N 16:32:56 21° NE
CZ-2C R/B 4.2 16:26:20 10° S 16:31:01 44° W 16:35:36 10° NNW
Cosmos 44 Rocket 4.3 16:26:42 10° NNW 16:31:01 28° NE 16:33:01 21° ENE
MOS 1-B 4.3 16:25:58 10° SSE 16:31:40 66° ENE 16:37:25 10° N
Cosmos 1092 Rocket 4.0 16:26:17 10° N 16:32:41 85° E 16:39:01 10° S
Cosmos 468 Rocket 4.0 16:28:37 10° SSW 16:33:47 89° WNW 16:39:02 10° NNE
Cosmos 1898 Rocket 3.7 16:29:23 10° NNW 16:34:38 74° WSW 16:39:49 10° SSE
Cosmos 1805 Rocket 3.4 16:30:35 10° N 16:34:57 84° E 16:39:16 10° S
Sich 1 2.9 16:31:20 10° N 16:35:36 67° ENE 16:39:53 10° SSE
Cosmos 1933 3.2 16:32:47 10° S 16:36:50 83° E 16:40:54 10° N
Cosmos 1428 Rocket 4.4 16:31:15 10° N 16:37:25 81° E 16:43:35 10° SSE
Cosmos 2221 4.2 16:35:55 10° SW 16:39:49 34° WNW 16:43:46 10° N
Cosmos 2360 Rocket 3.8 16:37:01 10° N 16:40:16 15° NE 16:40:27 15° NE
PSLV R/B 3.6 16:38:26 10° SSE 16:42:07 85° W 16:45:52 10° NNW
deb Chang Zheng 4 3.5 16:47:33 10° SSE 16:51:48 62° ENE 16:56:05 10° N
H-2A R/B 2.0 16:49:33 10° SSE 16:54:45 87° WSW 16:59:50 10° NNW
Meteor 1-14 Rocket 4.2 16:51:04 10° N 16:56:53 68° ENE 17:02:45 10° SSE
Meteor 2-16 Rocket 4.4 16:50:55 10° N 16:57:00 65° ENE 17:03:05 10° SSE
NOSS 2-2 (C) 4.3 16:53:09 10° NW 16:58:16 89° SW 17:05:28 10° SE
Cosmos 1666 2.6 16:54:58 10° N 16:58:39 56° ENE 17:02:18 10° SSE
ERBS 4.0 16:56:55 10° WNW 16:59:24 20° NNW 16:59:46 20° N
Cosmos 2322 Rocket 3.2 16:55:21 10° N 17:00:04 26° NE 17:00:05 26° NE
YAOGAN 3 4.5 16:56:13 10° SSE 17:00:31 64° ENE 17:04:51 10° N
Cosmos 2279 Rocket 3.9 16:56:20 10° S 17:02:26 62° E 17:08:33 10° NNE
USA 267 3.5 16:58:13 23° NE 17:02:27 65° NNW 17:08:54 10° WSW
USA 306 3.6 16:58:54 10° WNW 17:02:54 38° N 17:03:44 34° NNE
SJ-11-01 4.2 16:58:22 10° SSE 17:03:05 70° ENE 17:07:49 10° N
Cosmos 1697 Rocket 3.6 16:57:47 10° NW 17:03:13 50° WSW 17:08:34 10° S
Cosmos 2266 Rocket 4.3 16:59:35 10° N 17:05:39 43° ENE 17:11:42 10° SE
Cosmos 2369 4.0 17:00:57 10° NNW 17:06:41 70° WSW 17:12:20 10° SSE
Cosmos 1980 Rocket 2.2 17:01:31 10° NNW 17:07:14 85° WSW 17:12:52 10° SSE
COSMO-SKYMED 1 2.5 17:05:08 27° NNE 17:07:25 67° ESE 17:11:44 10° S
MOS 1-B Rocket 4.0 17:01:41 10° NNE 17:07:33 84° ESE 17:14:09 10° SSW
Cosmos 1763 Rocket 4.4 17:03:55 10° SW 17:08:46 46° WNW 17:13:31 11° NNE
Meteor 1-5 Rocket 4.2 17:03:04 10° N 17:09:06 75° ENE 17:15:00 10° SSE
SL-24 R/B - RUBIN 2 3.7 17:07:47 10° NW 17:12:19 70° SW 17:15:48 15° SSE
Cosmos 841 Rocket 3.4 17:08:55 10° SSW 17:14:06 86° WNW 17:17:15 24° NNE
Cosmos 1812 2.6 17:11:41 10° S 17:15:31 87° E 17:16:31 48° NNE
Helios 1B 4.4 17:14:16 32° NNE 17:16:15 80° ESE 17:20:35 10° SSW
SL-16 R/B 2.6 17:11:58 10° NNW 17:17:19 39° NE 17:17:26 39° NE
Cosmos 1125 Rocket 4.0 17:12:39 10° N 17:17:07 39° NE 17:17:07 39° NE
Cosmos 1634 Rocket 4.3 17:11:46 10° SSW 17:18:04 69° W 17:24:25 10° N
Cosmos 1633 Rocket 2.9 17:14:30 10° N 17:18:54 86° E 17:23:17 10° S
YAOGAN 1 3.9 17:22:20 26° N 17:22:20 26° N 17:24:23 10° N
USA 307 3.6 17:17:13 10° WNW 17:21:17 40° N 17:21:20 40° N
Cosmos 2082 Rocket 2.1 17:16:02 10° SSW 17:21:44 85° ESE 17:24:28 33° NNE
Cosmos 2333 Rocket 4.0 17:21:59 10° N 17:24:11 16° NNE 17:24:11 16° NNE
Okean O Rocket 1.9 17:25:13 10° S 17:29:39 67° WSW 17:34:06 10° NNW
Cosmos 2278 3.8 17:25:27 10° NNW 17:31:11 78° WSW 17:36:51 10° SSE
ATLAS 2AS CENTAUR R/B 4.1 17:25:16 10° NW 17:31:18 25° N 17:33:27 22° NNE
ATLAS CENTAUR R/B 4.0 17:34:01 10° NNW 17:35:36 12° N 17:36:14 11° N
Cosmos 1151 Rocket 3.3 17:32:11 10° SSW 17:36:27 65° W 17:38:08 36° N
Cosmos 1782 4.5 17:33:01 10° SW 17:36:39 33° WNW 17:39:43 13° NNW
Cosmos 1655 Rocket 3.9 17:30:31 10° N 17:36:57 74° E 17:43:18 10° SSE
COSMOS 2406 4.0 17:34:05 10° SW 17:39:38 48° NW 17:43:05 22° N
COSMOS 2455 3.0 17:35:29 10° SW 17:41:29 70° NW 17:43:55 37° NNE
Meteor 2-15 4.3 17:36:17 10° S 17:42:22 76° E 17:45:42 29° NNE
ARGOS 3.7 17:38:03 10° S 17:43:22 57° W 17:48:43 10° NNW
USA 308 4.0 17:39:44 10° WNW 17:42:51 36° NNW 17:42:51 36° NNW
Cosmos 1833 Rocket 4.0 17:41:13 10° WSW 17:46:21 36° NW 17:49:48 19° N
Meteor 2-6 Rocket 4.2 17:44:53 10° SSW 17:50:40 80° WNW 17:53:25 32° N
Cosmos 1328 Rocket 3.9 17:46:24 10° SSW 17:50:48 65° W 17:50:52 65° WNW
ISS -1.6 17:48:12 10° WNW 17:50:10 28° W 17:50:10 28° W
Cosmos 2219 Rocket 4.2 17:51:02 10° N 17:52:22 15° N 17:52:22 15° N
CZ-4 R/B 4.2 17:59:49 10° NNW 17:59:49 10° NNW 17:59:50 10° NNW
Lacrosse 5 rocket 2.9 17:54:26 10° NW 17:56:30 30° NW 17:56:30 30° NW
Landsat 5 4.4 18:00:26 44° W 18:00:26 44° W 18:03:42 10° SW
Cosmos 2298 Rocket 4.1 17:55:37 10° NNW 18:00:27 73° NW 18:00:27 73° NW
Cosmos 1570 Rocket 4.3 17:56:21 10° SSW 18:01:34 65° WNW 18:02:05 61° NNW
GEOS 3 Rocket 3.8 18:02:08 61° SSW 18:02:46 67° SW 18:07:57 10° NW
CZ-2C R/B 3.6 17:59:22 15° N 18:03:20 43° WNW 18:08:11 10° SW
ATLAS CENTAUR R/B 3.2 17:56:48 10° WSW 18:03:22 42° NW 18:03:22 42° NW
Meteor 1-11 Rocket 3.8 18:02:42 10° NNW 18:07:51 74° NW 18:07:51 74° NW
Meteor 1-10 Rocket 4.3 18:02:56 10° SSW 18:08:44 78° WNW 18:09:02 75° NW
Cosmos 1818 3.8 18:03:44 10° NW 18:09:03 69° WSW 18:09:03 69° WSW
Cosmos 44 Rocket 4.1 18:08:04 10° NW 18:11:47 47° WNW 18:11:47 47° WNW
CZ-4C R/B 3.5 18:06:20 10° NW 18:13:26 56° WSW 18:20:10 16° SSE
Cosmos 2360 Rocket 3.8 18:19:57 10° NNW 18:22:14 24° NNW 18:22:14 24° NNW
Cosmos 2322 Rocket 3.6 18:38:59 10° NNW 18:41:55 31° NW 18:41:55 31° NW
USA 267 4.1 18:45:34 42° NNW 18:45:34 42° NNW 18:51:00 10° WNW
SL-16 R/B 3.9 18:56:10 10° NW 18:59:20 29° WNW 18:59:20 29° WNW
Cosmos 2082 Rocket 4.2 19:02:11 10° W 19:06:20 22° NW 19:06:20 22° NW
ATLAS 2AS CENTAUR R/B 4.5 19:17:35 10° NW 19:20:53 24° NNW 19:20:53 24° NNW
